{"data":{"norad_id":65451,"epoch":"2026-09-20T14:25:56.429184Z","epoch_age_seconds":106024,"freshness":"FRESH","line1":"1 65451U 25194T   26263.60134756  .00011920  00000+0  37099-3 0  9996","line2":"2 65451  97.2828 113.2474 0001837  87.1873 272.9580 15.33443066 59084","mean_motion":15.33443066,"eccentricity":0.0001837,"inclination_deg":97.2828,"raan_deg":113.2474,"arg_perigee_deg":87.1873,"mean_anomaly_deg":272.958,"bstar":0.00037099,"rev_number":5908,"period_min":93.906323092663,"perigee_km":464.29174360239,"apogee_km":466.8061138126,"semimajor_km":6843.6859287075,"source":"CELESTRAK","updated_at":"2026-09-21T09:00:35.612097Z"}}